THORAD AGENA D DEB, 42538

Orbit data source: Space-Track

THORAD AGENA D DEB, 42538 is space debris in SSO originally from a launch on Wed, 08 Apr 1970 UTC launched from the Air Force Western Test Range (AFWTR). Debris objects in space refer to the collection of defunct objects orbiting the Earth. Examples of debris include non-operational satellites, rocket bodies, and fragments generated from explosions, collisions, or faulty payload assembly.

Loading next visibility...
Identifier
42538, 1970-025SU
Orbit
SSO
Country
Flag of USUS
Related business
Manufacturer
Unknown
Mission
Spacecraft
Bus & Motor
Unknown
Mass
Unknown
Launch date (UTC)
1970-04-08 (56 years ago)
Launch vehicle
Unknown
Launch site
Air Force Western Test Range (AFWTR)
Object type
Payload
Rocket body
Debris
Shape & HBR
Unknown shape, 0.1 m
Radar Cross Section
Small (<0.1 m²)

Expand to show TLE details & history
Last TLE update: 5 days ago

TLE from 5 days ago
0 THORAD AGENA D DEB
1 42538U 70025SU  26032.85002777  .00000091  00000-0  20230-3 0  9995
2 42538 100.1692  48.4234 0000497  37.2798 322.8372 13.54653011602840
Epoch: 2026-02-01T20:24Z
TLE epoch observation values (Epoch: 2026-02-01T20:24:02.399Z)
Latitude
0.00002°
Longitude
-29.64035°
Altitude
1,057.669 km
Speed
7.323 km/s
True Right ascension
03h 13m 41s
True Declination
0° 00' 00"
Sunlit
Object was in daylight at epoch
Visualization orbit readout
Latitude
Unknown
Longitude
Unknown
Altitude
Unknown
Speed
Unknown
Apparent Right ascension
Unknown
Apparent Declination
Unknown
Sunlit
N/A
Visualization observer readout
Local Sidereal Time
21:02:35
Azimuth
Unknown
Elevation
Unknown
Doppler factor
Unknown
Orbital elements
Apogee altitude
1,052.877 km
Perigee altitude
1,052.139 km
Semi-major axis
7,430.645 km
Eccentricity
0.00005
Inclination
100.1692°
RAAN
48.4234°
Arg. of periapsis
37.2798°
True anomaly
322.83376°
Mean anomaly
322.8372°
Eccentric anomaly
322.83548°
Mean motion
3.38847 °/min
Orbital period
106.24 mins
BSTAR
0.0002023
Loading maneuver chart data...
Computing Atmospheric mass density...

Documentation

Showing up to 5 results
|